Lake Erie Weather Center

Moon Phase Calendar



Lake Erie Water Level
Online Cameras

 


      

Current Conditions in Geneva-on-the-Lake
11/29/2021 10:51:06 AM

35°F
Feels Like 26
Clouds
Humidity
78%
Pressure
30.09"
Wind
15.4 mph (WNW)
Dew Point
30°F
UV Index
1/10 (Low)
Visibility
6 mi

Hourly Forecast

Date & Time Mon, Nov 29
10:00 AM
Mon, Nov 29
11:00 AM
Mon, Nov 29
12:00 PM
Mon, Nov 29
1:00 PM
Mon, Nov 29
2:00 PM
Mon, Nov 29
3:00 PM
Mon, Nov 29
4:00 PM
Mon, Nov 29
5:00 PM
Mon, Nov 29
6:00 PM
Mon, Nov 29
7:00 PM
Mon, Nov 29
8:00 PM
Mon, Nov 29
9:00 PM
Mon, Nov 29
10:00 PM
Mon, Nov 29
11:00 PM
Tue, Nov 30
12:00 AM
Tue, Nov 30
1:00 AM
Tue, Nov 30
2:00 AM
Tue, Nov 30
3:00 AM
Tue, Nov 30
4:00 AM
Tue, Nov 30
5:00 AM
Tue, Nov 30
6:00 AM
Tue, Nov 30
7:00 AM
Tue, Nov 30
8:00 AM
Tue, Nov 30
9:00 AM
Tue, Nov 30
10:00 AM
Tue, Nov 30
11:00 AM
Tue, Nov 30
12:00 PM
Tue, Nov 30
1:00 PM
Tue, Nov 30
2:00 PM
Tue, Nov 30
3:00 PM
Tue, Nov 30
4:00 PM
Tue, Nov 30
5:00 PM
Tue, Nov 30
6:00 PM
Tue, Nov 30
7:00 PM
Tue, Nov 30
8:00 PM
Tue, Nov 30
9:00 PM
Tue, Nov 30
10:00 PM
Tue, Nov 30
11:00 PM
Wed, Dec 1
12:00 AM
Wed, Dec 1
1:00 AM
Wed, Dec 1
2:00 AM
Wed, Dec 1
3:00 AM
Wed, Dec 1
4:00 AM
Wed, Dec 1
5:00 AM
Wed, Dec 1
6:00 AM
Wed, Dec 1
7:00 AM
Wed, Dec 1
8:00 AM
Wed, Dec 1
9:00 AM
Condition
Clouds

Clouds

Clouds

Clouds

Clouds

Clouds

Clouds

Clouds

Clouds

Clouds

Clouds

Clouds

Clouds

Clouds

Snow

Snow

Snow

Snow

Snow

Snow

Snow

Rain

Clouds

Clouds

Clouds

Clouds

Clouds

Clouds

Clouds

Clouds

Clouds

Clouds

Clouds

Rain

Clouds

Clouds

Clouds

Clouds

Clouds

Clouds

Clouds

Clouds

Clouds

Clouds

Clouds

Clouds

Clouds

Clouds
Temperature 35°F35°F35°F36°F36°F37°F37°F38°F38°F39°F39°F40°F39°F40°F37°F35°F36°F36°F36°F36°F37°F38°F40°F39°F38°F38°F38°F39°F40°F40°F40°F40°F39°F39°F39°F39°F39°F39°F39°F39°F39°F40°F40°F40°F40°F40°F40°F41°F
Feels Like 25°F26°F26°F26°F27°F27°F28°F29°F30°F31°F31°F31°F30°F31°F25°F24°F25°F25°F25°F26°F27°F29°F30°F30°F29°F29°F29°F29°F30°F30°F30°F30°F28°F28°F29°F29°F29°F29°F29°F30°F31°F31°F32°F33°F33°F33°F34°F33°F
Cloudiness 100%100%99%93%55%66%57%61%69%74%100%100%100%100%100%100%100%100%100%100%100%100%100%100%92%82%75%69%35%30%26%31%44%54%100%100%100%100%100%100%100%100%100%100%100%100%100%100%
Visibility 6 mi6 mi6 mi6 mi6 mi6 mi6 mi6 mi6 mi6 mi6 mi6 mi6 mi6 mi4 mi3 mi0 mi0 mi0 mi0 mi0 mi2 mi6 mi6 mi6 mi6 mi6 mi6 mi6 mi6 mi6 mi6 mi6 mi6 mi6 mi6 mi6 mi6 mi6 mi6 mi6 mi6 mi6 mi6 mi6 mi6 mi6 mi6 mi
Precipitation 5%9%9%9%0%0%0%0%0%0%0%0%0%1%22%46%100%100%100%100%100%100%28%24%20%12%12%8%0%0%0%0%0%20%24%8%4%0%0%0%0%0%0%0%0%0%0%0%
Humidity 79%78%77%75%72%66%64%64%64%62%61%60%61%58%84%92%97%98%98%98%97%84%74%75%76%78%80%80%78%78%79%82%83%83%78%76%73%73%72%69%69%70%70%70%70%70%71%74%
Dew Point 30°F30°F29°F29°F28°F27°F26°F27°F27°F27°F27°F27°F27°F26°F32°F33°F35°F35°F35°F36°F36°F34°F32°F31°F31°F32°F32°F33°F33°F34°F34°F35°F34°F34°F33°F33°F31°F31°F31°F30°F30°F30°F30°F31°F31°F31°F32°F33°F
Pressure 30.09"30.09"30.09"30.09"30.06"30.03"30.03"30.03"30"30"30"29.97"29.97"29.97"29.97"29.94"29.91"29.91"29.88"29.85"29.85"29.85"29.88"29.88"29.91"29.91"29.91"29.91"29.91"29.91"29.94"29.94"29.97"30"30"30.03"30.03"30.03"30.06"30.03"30.06"30.06"30.03"30.06"30.06"30.06"30.03"30.03"
Wind Speed 16.3 mph15.4 mph16.1 mph16 mph14.7 mph15.2 mph15.2 mph14.9 mph14.7 mph13.8 mph15.4 mph17.5 mph20.3 mph18 mph24.3 mph20 mph19.3 mph19.7 mph19.7 mph19 mph19 mph18.1 mph18.3 mph16.6 mph16 mph14.8 mph17 mph18 mph19.7 mph21 mph22.8 mph23.8 mph25.5 mph25.2 mph24.3 mph24.1 mph22.4 mph21.2 mph19.6 mph16.6 mph15.6 mph14.2 mph12.7 mph11.3 mph10.3 mph10 mph11.2 mph14.6 mph
Wind
Direction
303°
WNW
295°
WNW
285°
WNW
283°
WNW
275°
W
266°
W
266°
W
267°
W
257°
WSW
250°
WSW
237°
WSW
230°
SW
231°
SW
229°
SW
230°
SW
214°
SW
197°
SSW
198°
SSW
199°
SSW
209°
SSW
230°
SW
261°
W
277°
W
286°
WNW
286°
WNW
279°
W
275°
W
271°
W
265°
W
260°
W
265°
W
273°
W
281°
W
286°
WNW
284°
WNW
287°
WNW
289°
WNW
288°
WNW
284°
WNW
276°
W
268°
W
266°
W
275°
W
269°
W
255°
WSW
241°
WSW
217°
SW
202°
SSW

Daily Forecast

Date High Low Precip. Humidity
Today
Nov 29

Snow
40 °F
35 °F
72%
77%
Tuesday
Nov 30

Snow
40 °F
35 °F
100%
80%
Wednesday
Dec 1

Rain
45 °F
39 °F
100%
77%
Thursday
Dec 2

Rain
48 °F
41 °F
28%
74%
Friday
Dec 3

Clouds
39 °F
37 °F
0%
70%
Saturday
Dec 4

Clouds
42 °F
37 °F
10%
82%
Sunday
Dec 5

Clouds
36 °F
34 °F
15%
55%
Monday
Dec 6

Snow
38 °F
32 °F
93%
73%
Tuesday
Dec 7

Snow
47 °F
35 °F
100%
83%
Wednesday
Dec 8

Snow
47 °F
28 °F
100%
69%
Thursday
Dec 9

Clouds
37 °F
28 °F
0%
62%
Friday
Dec 10

Clouds
44 °F
38 °F
0%
60%
Saturday
Dec 11

Rain
49 °F
41 °F
100%
92%
Sunday
Dec 12

Rain
39 °F
37 °F
89%
71%
Monday
Dec 13

Clouds
42 °F
38 °F
0%
66%
Tuesday
Dec 14

Rain
52 °F
40 °F
100%
92%

Temperature 8-14 Day Outlook



Precipitation 8-14 Day Outlook




Quick Links
Lake Erie News
Lake Erie Photos
Lake Erie Videos




About Us
Contact Us
Site Map
Search Site
Advertise With Us
   
Erie.USLakes.info
THE LAKE ERIE WEBSITE

Copyright 2021, Lakes Online
Privacy    |    Legal